DW4028 Weather Reports


Display with metric or nautical units.
time (UTC)temp
F
wind
direction
speed
MPH
gust
MPH
rain 1hr
in
rain 24hr
in
rain mn
in
humidity
%
barometer
mb
20260505034511 51 150 1.0 7.0 0.00 0.00 0.00 79 1011.9
20260505033023 51 168 1.0 8.0 0.00 0.00 0.00 78 1011.8
20260505031526 52 137 3.0 6.0 0.00 0.00 0.00 76 1011.9
20260505030016 52 177 3.0 7.0 0.00 0.00 0.00 75 1012.0
20260505024526 52 158 2.0 7.0 0.00 0.00 0.00 75 1012.0
20260505023026 52 132 1.0 5.0 0.00 0.00 0.00 73 1012.0
20260505021520 53 159 2.0 7.0 0.00 0.00 0.00 72 1012.0
20260505020023 53 188 2.0 9.0 0.00 0.00 0.00 71 1012.0
20260505014529 54 173 3.0 9.0 0.00 0.00 0.00 70 1011.9
20260505013015 54 156 2.0 8.0 0.00 0.00 0.00 69 1011.8
20260505011511 54 167 3.0 8.0 0.00 0.00 0.00 67 1011.6
20260505010017 55 169 3.0 13.0 0.00 0.00 0.00 64 1011.3
20260505004507 56 173 5.0 13.0 0.00 0.00 0.00 62 1011.0
20260505003011 56 140 4.0 8.0 0.00 0.00 0.00 59 1010.7
20260505001523 57 157 3.0 9.0 0.00 0.00 0.00 57 1010.4
20260505000011 57 169 4.0 11.0 0.00 0.00 0.00 56 1010.2
20260504234516 59 229 3.0 12.0 0.00 0.00 0.00 53 1009.9
20260504233006 59 238 3.0 13.0 0.00 0.00 0.00 52 1009.8
20260504231512 60 108 6.0 11.0 0.00 0.00 0.00 51 1009.6
20260504230019 62 43 3.0 15.0 0.00 0.00 0.00 45 1009.4
20260504224508 63 91 7.0 18.0 0.00 0.00 0.00 44 1009.2
20260504223005 64 158 2.0 17.0 0.00 0.00 0.00 43 1009.0
20260504221504 64 134 7.0 18.0 0.00 0.00 0.00 42 1008.8
20260504220006 65 142 7.0 25.0 0.00 0.00 0.00 42 1008.9
20260504214506 65 137 4.0 17.0 0.00 0.00 0.00 42 1008.8
20260504213010 66 186 6.0 17.0 0.00 0.00 0.00 42 1008.6
20260504211529 66 148 10.0 18.0 0.00 0.00 0.00 41 1008.5
20260504210024 67 195 7.0 18.0 0.00 0.00 0.00 39 1008.4
20260504204508 67 250 5.0 17.0 0.00 0.00 0.00 39 1008.4
20260504203013 67 294 8.0 16.0 0.00 0.00 0.00 38 1008.2
20260504201517 67 256 8.0 16.0 0.00 0.00 0.00 36 1008.3
20260504200018 67 201 8.0 19.0 0.00 0.00 0.00 36 1008.3
20260504194516 69 238 5.0 12.0 0.00 0.00 0.00 33 1008.5
20260504193018 69 231 3.0 12.0 0.00 0.00 0.00 32 1008.4
20260504191528 70 291 6.0 18.0 0.00 0.00 0.00 30 1008.4
20260504190019 69 324 6.0 18.0 0.00 0.00 0.00 31 1008.7
20260504184510 69 227 5.0 18.0 0.00 0.00 0.00 30 1008.9
20260504183020 69 222 7.0 18.0 0.00 0.00 0.00 30 1009.0
20260504181522 69 164 5.0 17.0 0.00 0.00 0.00 29 1009.0
20260504180018 69 248 3.0 18.0 0.00 0.00 0.00 29 1009.1
20260504174523 69 278 6.0 18.0 0.00 0.00 0.00 30 1009.0
20260504173022 69 240 7.0 17.0 0.00 0.00 0.00 28 1009.1
20260504171524 69 275 6.0 16.0 0.00 0.00 0.00 31 1009.1
20260504081515 44 161 1.0 3.0 0.00 0.00 0.00 61 1011.2
20260504050004 41 248 0.0 2.0 0.00 0.00 0.00 61 1011.3
20260504044509 41 237 0.0 2.0 0.00 0.00 0.00 61 1011.3
20260504043013 41 272 0.0 2.0 0.00 0.00 0.00 62 1011.3
20260504041507 40 301 0.0 2.0 0.00 0.00 0.00 65 1011.3
20260504040008 39 271 0.0 2.0 0.00 0.00 0.00 69 1011.2